Temperature
18 18 18 18 18 18 18 18 18 18 18 18 18 18 18 18 17 18 18 18 17 17 17 17 17 17 17 17 16 16 16 16 16 16 16 16 16 16 16 16 16 16 16
18 18 18 18 18 18 18 18 18 18 18 18 18 18 18 17 17 17 17 17 17 17 17 17 17 17 17 17 16 16 16 16 16 16 16 16 16 16 16 16 16 16 16
18 18 18 18 18 18 18 18 18 18 18 18 18 18 18 17 17 17 17 17 17 17 17 17 17 17 17 17 17 16 16 16 16 16 16 16 16 16 16 16 16 16 16
18 18 18 18 18 18 18 18 18 18 18 18 18 18 18 18 17 17 17 17 17 17 17 17 17 17 17 17 17 16 16 16 16 16 16 16 16 16 16 16 16 16 16
18 18 18 18 18 18 18 18 18 18 18 18 18 18 17 17 17 17 17 17 17 17 17 17 17 17 17 17 17 16 16 16 16 16 16 16 16 16 16 16 16 16 15
18 18 18 18 18 18 18 18 18 18 18 18 18 18 18 17 17 17 17 17 17 17 17 17 17 17 17 17 17 16 16 16 16 16 16 16 16 16 16 16 16 16 15
18 18 18 18 18 18 18 18 18 18 18 18 18 18 18 18 17 17 17 17 17 17 17 17 17 17 16 16 16 16 16 16 16 16 16 16 16 16 16 16 16 15 15
18 18 18 18 18 18 18 17 18 18 18 18 18 18 18 18 18 18 18 18 17 17 17 17 17 16 16 16 16 16 16 16 16 16 16 16 16 16 16 15 15 15 15
18 18 18 18 18 18 18 17 17 18 18 18 18 18 18 18 18 18 18 18 18 17 17 17 17 17 16 16 16 16 16 16 16 16 16 16 16 16 16 15 15 15 15
17 18 18 18 18 18 17 17 17 18 18 18 18 18 18 18 18 18 18 18 18 18 17 17 17 17 17 16 16 16 16 16 16 16 16 16 16 15 15 15 15 15 15
17 17 17 18 18 18 17 17 17 17 18 18 18 18 18 18 18 18 18 18 18 18 18 18 17 17 17 17 16 16 16 16 16 16 16 16 16 16 15 15 15 15 15
17 17 17 17 18 18 17 17 17 17 17 17 18 18 18 18 18 18 19 19 18 18 18 18 18 17 17 17 17 17 17 16 16 16 16 16 16 16 15 15 15 15 15
17 17 17 17 17 17 17 17 17 17 17 17 18 18 18 18 18 18 19 19 19 19 18 18 18 18 17 17 17 17 17 17 16 16 16 16 16 16 16 15 15 15 15
17 17 17 17 17 17 17 17 17 17 17 17 17 17 17 18 18 18 18 18 18 19 18 18 18 18 18 17 17 17 17 16 16 16 16 16 16 16 16 15 15 15 15
17 17 17 17 17 17 17 17 17 17 17 17 17 17 17 17 18 18 18 18 18 18 18 18 18 18 18 17 17 17 17 16 16 16 16 16 16 16 16 15 15 15 15
17 17 17 17 17 17 17 17 17 17 17 17 17 17 17 17 17 17 18 18 18 18 18 18 18 18 18 17 17 17 16 16 16 16 16 16 16 16 16 16 16 15 15
17 17 17 17 17 17 17 17 17 17 17 16 16 16 17 17 17 17 17 17 17 17 17 18 18 17 17 17 17 17 16 16 16 16 16 16 16 16 16 15 15 15 15
17 17 17 17 17 17 17 17 17 16 16 16 16 16 16 16 16 17 17 17 17 17 17 17 17 17 17 17 17 16 16 16 16 16 16 16 16 16 15 15 15 15 15
17 17 17 17 17 16 16 16 16 16 16 16 16 16 16 16 16 16 16 16 16 16 16 16 16 16 16 16 16 16 16 15 15 16 16 16 15 15 15 15 15 15 15
17 17 17 17 17 16 16 16 16 16 16 16 16 16 16 16 16 16 16 16 16 16 16 16 16 16 16 16 16 15 15 15 15 15 15 15 15 15 15 15 14 14 14
17 17 17 16 16 16 16 16 16 16 16 16 15 15 15 15 15 15 15 15 15 15 15 15 15 15 15 15 15 15 15 15 15 15 15 15 14 14 14 14 14 14 13
17 16 16 16 16 16 16 16 16 15 15 15 15 15 15 15 15 15 15 15 15 15 15 15 14 14 14 14 14 14 14 14 14 14 14 14 14 14 13 13 13 13 13
16 16 16 16 16 16 16 15 15 15 15 15 15 15 14 14 14 14 14 14 14 14 14 14 14 14 13 13 13 13 13 13 13 13 13 13 13 13 13 13 12 12 12
16 16 15 15 15 15 15 15 15 15 15 14 14 14 14 14 14 14 14 13 13 13 13 13 13 13 13 12 12 12 12 12 12 12 12 12 12 12 12 12 12 12 11
15 15 15 15 15 15 15 15 15 14 14 14 14 13 13 13 13 13 13 13 13 12 12 12 12 12 12 12 12 12 12 12 11 11 11 11 11 11 11 11 11 11 11
15 14 14 14 14 14 14 14 14 14 14 13 13 13 13 12 12 12 12 12 12 12 12 11 11 11 11 11 11 10 10 10 10 10 10 10 10 10 10 10 10 10 10
Wind_Speed
4 5 4 5 7 7 6 3 2 4 3 3 3 5 5 7 12 13 12 13 13 11 10 10 10 10 10 9 9 9 9 9 9 9 9 9 8 8 7 7 7 6 6
5 4 3 2 3 4 4 4 3 3 2 2 2 4 5 6 11 13 13 12 12 11 11 10 10 9 9 9 9 9 9 9 9 9 9 8 8 7 7 7 7 6 6
8 5 3 2 2 5 5 3 2 3 3 3 3 3 4 5 8 11 13 13 12 11 11 11 10 10 10 9 9 9 9 9 9 9 9 8 8 7 7 6 6 6 6
9 5 3 3 4 5 3 2 2 2 2 3 3 2 3 4 6 9 12 13 13 12 12 12 11 10 10 10 10 10 9 9 10 9 9 9 8 8 7 7 6 6 6
9 6 3 3 4 2 2 3 3 2 2 3 4 3 3 3 4 6 8 11 13 14 14 14 13 12 11 11 11 10 10 10 10 10 10 9 9 9 8 8 8 8 8
8 6 4 4 3 2 2 2 3 2 1 1 2 3 3 3 3 3 4 7 10 13 15 14 14 12 13 12 12 11 11 11 11 11 11 10 10 10 10 10 9 9 9
8 4 3 4 2 2 3 4 3 3 2 2 1 1 2 4 4 4 3 3 6 8 13 16 15 13 13 15 14 13 12 12 12 12 12 12 11 11 11 11 11 11 11
8 7 4 4 4 2 2 2 2 1 2 2 1 1 1 1 2 5 5 5 5 7 8 12 12 13 13 13 15 16 14 13 12 12 13 12 12 12 12 11 11 11 12
8 6 6 4 5 5 4 4 4 4 2 2 2 1 1 2 2 2 4 4 4 4 4 8 12 12 12 13 14 17 16 15 14 13 13 13 13 13 13 13 13 13 13
8 8 7 5 4 4 5 6 6 3 3 2 2 1 2 2 1 0 2 3 5 5 4 5 7 11 12 11 14 17 18 17 15 14 13 13 14 14 14 14 13 13 13
7 8 7 6 5 4 5 5 3 3 3 3 2 3 3 3 3 3 2 3 4 5 5 4 4 8 12 12 13 16 20 19 17 15 14 13 13 13 13 13 14 14 14
6 7 7 6 5 4 4 4 3 5 3 2 2 2 1 2 2 2 2 3 4 4 5 4 4 5 9 12 13 17 20 20 18 16 14 14 13 13 13 13 14 14 14
6 7 7 6 5 4 4 4 4 4 4 3 3 2 2 2 1 1 1 2 1 2 3 4 4 6 9 9 10 16 19 20 18 17 15 14 14 14 14 14 14 14 14
6 7 7 6 6 6 6 4 4 4 4 4 5 3 2 3 2 2 1 1 2 2 3 4 3 5 6 9 13 17 15 19 19 17 16 16 15 15 14 14 14 14 13
6 8 8 8 6 6 5 5 4 4 4 4 4 4 4 4 3 2 1 1 1 2 3 2 2 3 5 7 12 13 11 17 19 18 17 17 16 15 15 14 14 14 13
5 6 7 7 7 6 5 5 4 4 4 4 3 3 2 3 3 2 2 2 2 2 2 1 2 1 2 4 10 9 7 12 17 18 18 17 16 16 15 14 14 14 13
5 5 5 6 6 6 6 5 5 4 5 4 4 3 3 3 3 3 2 2 2 2 3 3 1 0 2 1 3 4 5 7 9 15 17 17 17 16 15 15 15 14 13
5 5 5 5 6 6 6 6 6 5 5 4 4 3 3 3 3 2 3 3 2 2 2 3 2 1 1 2 3 3 4 5 6 10 15 17 17 16 16 15 14 13 13
5 5 5 5 5 5 6 6 5 4 4 4 4 3 2 2 2 2 2 3 3 3 2 2 3 2 1 1 1 2 2 2 5 6 10 13 15 16 16 15 14 13 12
5 5 5 4 4 4 4 4 4 4 3 3 3 2 2 1 2 2 3 3 3 3 2 2 2 2 1 1 1 1 2 2 3 4 3 6 10 15 15 14 13 12 11
5 4 4 3 3 3 3 3 3 4 3 2 2 2 2 2 3 1 1 1 2 2 2 1 1 1 2 2 2 2 2 3 2 2 2 2 1 2 5 7 8 9 9
4 4 4 3 3 3 2 3 3 3 4 3 2 2 2 4 4 4 3 3 2 0 0 1 1 2 2 3 3 3 3 3 3 3 3 4 2 1 1 2 4 6 8
4 5 4 4 3 1 3 4 3 3 3 3 2 2 2 2 3 2 2 3 4 4 3 2 2 2 2 4 3 3 3 3 3 4 3 4 2 2 2 2 2 3 5
4 4 4 4 4 3 4 4 5 4 4 3 3 3 3 4 3 2 2 3 3 4 3 3 4 3 3 3 3 3 4 4 3 2 3 3 3 3 3 2 3 3 5
5 5 4 5 5 4 4 3 4 4 5 5 5 5 5 5 6 4 3 3 4 4 7 8 7 5 5 6 6 4 5 4 4 2 3 3 3 3 3 2 2 3 5
6 6 6 6 6 6 7 6 4 4 6 6 7 8 11 9 8 7 4 4 4 3 3 3 3 3 3 5 7 5 4 4 4 2 4 4 4 4 4 3 3 4 5
Wind_Direction
150 143 146 164 178 167 163 175 173 143 144 143 140 119 112 106 119 126 137 147 148 149 151 151 153 154 153 153 153 153 154 154 153 151 150 151 150 149 149 148 147 143 140
136 134 149 178 166 143 135 143 143 131 120 100 92 101 103 106 113 128 142 152 158 160 160 161 165 166 165 166 168 169 167 166 164 164 163 162 161 160 161 162 160 157 155
142 153 157 188 155 129 125 135 139 137 155 148 123 112 108 111 119 136 150 158 165 170 170 171 173 175 176 178 180 181 180 179 174 173 174 174 173 175 176 176 177 179 177
153 164 161 173 147 137 151 136 166 165 145 130 123 125 114 128 141 152 159 168 168 172 179 183 181 184 187 190 192 192 192 190 186 186 187 188 188 189 189 193 194 194 195
167 176 148 131 162 153 162 179 147 151 140 146 155 158 146 152 157 176 166 171 171 169 173 183 187 190 196 199 201 202 201 200 198 198 199 201 203 202 202 205 207 208 212
178 183 156 162 190 166 142 97 116 98 133 192 190 149 155 159 177 170 183 175 174 178 172 174 183 195 203 204 206 207 206 204 204 206 208 210 211 211 212 214 216 219 222
183 202 156 159 181 171 158 151 152 167 204 187 139 155 180 183 182 180 195 174 181 177 166 170 184 190 196 208 209 209 209 207 207 210 212 214 214 214 216 220 223 226 228
183 193 171 177 173 168 155 139 127 158 226 182 170 163 192 216 219 199 182 193 184 176 176 183 187 185 189 189 207 210 210 209 210 212 214 216 216 216 219 222 228 232 234
192 192 174 192 174 179 172 183 179 194 222 195 201 190 175 198 218 221 200 188 173 174 195 188 187 188 195 188 193 205 209 210 212 216 217 218 219 221 223 226 231 235 238
189 189 185 186 190 195 165 195 193 194 205 217 212 212 195 137 156 228 254 191 184 187 210 204 190 190 200 191 186 192 203 208 211 216 219 220 221 224 227 230 234 237 240
195 194 188 188 193 193 179 196 166 202 217 226 221 211 204 187 216 195 218 211 202 193 197 203 194 195 197 190 184 188 196 203 208 213 219 221 223 225 229 232 237 241 243
195 193 189 186 191 191 179 175 171 201 234 263 276 267 193 201 236 229 209 214 204 199 193 189 187 195 197 196 197 190 191 199 205 212 217 222 225 229 232 235 240 243 246
190 192 190 183 191 190 182 178 184 207 207 224 246 272 279 261 258 281 268 247 218 197 188 189 190 195 206 184 178 178 189 197 204 210 216 221 227 231 234 238 241 246 250
185 182 181 183 194 193 193 178 187 203 200 208 230 243 287 282 275 272 281 293 277 254 217 209 185 187 193 168 173 177 189 200 206 212 217 223 228 232 237 241 244 247 252
188 175 175 184 192 192 187 177 205 207 181 196 229 224 237 267 264 271 287 281 266 269 264 236 192 182 167 161 169 185 195 203 208 213 219 224 228 233 237 240 244 247 251
183 169 173 182 186 184 186 188 208 195 182 200 227 224 215 272 282 261 256 283 284 260 265 271 238 189 154 173 175 190 209 206 213 217 220 223 227 231 235 239 242 245 248
170 176 184 185 184 185 188 196 218 196 191 208 221 212 208 250 298 311 296 271 268 269 264 274 266 145 136 133 151 217 221 206 214 217 219 220 224 228 233 238 241 244 247
174 180 189 193 192 189 188 195 214 207 194 207 219 227 220 227 232 275 303 303 289 272 259 275 292 321 187 206 200 223 239 236 228 222 220 221 225 229 233 237 241 243 245
170 176 182 191 195 191 191 196 204 215 202 202 204 209 211 235 232 247 261 285 303 296 283 262 273 270 246 253 218 240 252 267 272 249 227 223 227 232 237 238 238 239 241
168 177 180 184 190 191 192 189 192 208 211 201 189 177 169 200 228 245 257 263 272 285 294 286 283 287 285 279 249 258 284 295 296 300 274 230 229 234 239 240 238 237 239
171 164 161 168 182 188 191 180 184 191 190 182 163 153 158 121 87 77 285 311 293 286 276 271 287 318 334 352 354 341 325 319 297 329 326 303 249 235 237 232 230 233 237
165 157 158 162 170 194 179 158 177 179 162 169 169 154 139 110 108 109 98 71 62 44 344 35 20 15 2 2 0 349 345 333 316 349 351 319 334 305 262 169 190 217 232
166 164 159 150 142 103 102 128 150 152 138 146 153 151 157 108 108 118 115 99 69 60 76 82 53 22 10 7 357 343 338 326 301 309 317 303 330 335 10 106 161 210 219
128 128 126 127 118 100 108 123 130 136 117 102 98 102 102 64 50 52 85 85 77 62 66 91 80 61 49 17 354 330 309 300 285 340 352 316 334 335 344 322 243 242 241
122 116 113 107 96 81 80 109 130 133 117 100 84 71 78 74 46 43 76 86 81 75 76 87 93 87 63 34 19 10 1 352 342 15 5 342 338 333 322 308 278 269 271
118 105 90 84 85 75 67 78 116 124 114 103 87 71 63 64 50 48 67 79 77 53 55 74 74 58 55 44 40 35 20 1 348 358 19 0 346 348 327 335 346 318 298
Height
1562 1564 1565 1567 1568 1570 1571 1572 1573 1574 1575 1577 1578 1578 1579 1580 1579 1580 1581 1582 1583 1584 1585 1586 1587 1588 1589 1590 1592 1593 1594 1595 1596 1597 1598 1599 1600 1601 1601 1602 1603 1604 1605
1562 1564 1565 1567 1568 1570 1571 1572 1574 1575 1576 1577 1578 1579 1580 1580 1580 1580 1582 1583 1583 1584 1585 1586 1587 1588 1589 1590 1592 1593 1594 1595 1596 1597 1598 1599 1600 1600 1601 1602 1603 1604 1605
1561 1564 1566 1567 1568 1570 1571 1572 1574 1575 1576 1577 1578 1579 1580 1581 1581 1582 1582 1583 1584 1584 1585 1586 1587 1588 1589 1590 1591 1592 1593 1594 1595 1596 1597 1598 1599 1600 1601 1602 1603 1604 1604
1561 1563 1565 1567 1568 1570 1571 1573 1574 1575 1576 1577 1578 1579 1580 1581 1581 1582 1583 1583 1583 1584 1585 1586 1587 1588 1589 1589 1591 1592 1593 1594 1595 1596 1597 1598 1599 1599 1600 1601 1602 1603 1604
1560 1562 1565 1566 1568 1570 1571 1573 1574 1575 1576 1577 1578 1578 1580 1580 1581 1583 1583 1583 1583 1584 1585 1586 1586 1587 1588 1589 1590 1591 1592 1593 1594 1595 1596 1597 1597 1598 1599 1600 1601 1602 1603
1559 1562 1564 1565 1568 1569 1571 1572 1573 1574 1575 1576 1578 1578 1579 1580 1581 1582 1583 1583 1584 1584 1584 1585 1586 1587 1587 1588 1589 1590 1590 1591 1592 1593 1594 1595 1596 1597 1598 1599 1600 1601 1601
1558 1560 1563 1564 1566 1568 1570 1571 1572 1574 1575 1576 1577 1578 1579 1579 1580 1581 1582 1583 1583 1584 1584 1584 1585 1585 1586 1587 1588 1588 1589 1590 1591 1592 1592 1593 1594 1595 1596 1597 1598 1599 1600
1556 1559 1561 1563 1565 1567 1568 1570 1571 1573 1574 1575 1576 1577 1578 1579 1579 1580 1581 1581 1583 1583 1584 1584 1585 1585 1585 1585 1586 1587 1588 1588 1589 1590 1590 1591 1592 1593 1594 1595 1596 1597 1597
1554 1557 1559 1561 1563 1565 1567 1568 1570 1571 1573 1574 1575 1577 1577 1577 1578 1579 1580 1580 1581 1582 1583 1583 1583 1583 1584 1584 1585 1585 1586 1587 1587 1588 1588 1589 1590 1591 1592 1593 1593 1594 1595
1552 1555 1557 1559 1561 1564 1566 1567 1569 1570 1572 1573 1574 1575 1576 1576 1577 1578 1579 1579 1580 1581 1581 1582 1582 1581 1582 1583 1583 1584 1584 1585 1585 1586 1586 1587 1588 1589 1589 1590 1591 1591 1592
1550 1553 1555 1557 1559 1562 1563 1565 1567 1569 1570 1571 1572 1574 1575 1576 1576 1577 1577 1578 1578 1579 1579 1580 1581 1581 1581 1581 1582 1582 1583 1583 1584 1584 1584 1585 1586 1586 1587 1587 1588 1588 1589
1547 1550 1552 1555 1557 1559 1561 1563 1565 1567 1568 1569 1571 1572 1573 1574 1575 1575 1576 1576 1577 1577 1577 1578 1579 1579 1580 1580 1580 1581 1581 1581 1582 1582 1582 1583 1583 1584 1584 1585 1585 1586 1586
1544 1547 1550 1552 1555 1557 1559 1561 1562 1564 1566 1567 1568 1570 1571 1572 1573 1574 1574 1574 1575 1575 1576 1576 1577 1577 1578 1578 1579 1579 1579 1579 1579 1580 1580 1580 1581 1581 1581 1582 1582 1583 1583
1541 1544 1546 1549 1552 1554 1557 1558 1560 1562 1563 1565 1566 1568 1569 1570 1571 1572 1573 1573 1573 1574 1574 1574 1574 1575 1576 1576 1576 1577 1577 1577 1577 1577 1577 1578 1578 1578 1578 1579 1579 1579 1579
1539 1541 1543 1546 1549 1552 1554 1556 1558 1560 1561 1562 1564 1565 1566 1568 1569 1569 1570 1571 1572 1572 1572 1572 1573 1573 1573 1574 1574 1574 1574 1574 1574 1574 1575 1575 1575 1575 1575 1575 1575 1575 1575
1536 1539 1541 1544 1546 1549 1551 1553 1555 1557 1558 1560 1561 1563 1564 1565 1566 1567 1568 1568 1569 1570 1570 1570 1571 1571 1571 1571 1571 1572 1572 1572 1571 1571 1571 1571 1572 1572 1572 1572 1572 1572 1572
1533 1536 1539 1541 1543 1545 1548 1550 1552 1554 1556 1557 1559 1560 1561 1562 1562 1563 1565 1565 1566 1567 1567 1568 1569 1569 1569 1569 1569 1569 1569 1569 1568 1568 1568 1568 1568 1568 1568 1568 1568 1568 1567
1531 1534 1537 1539 1541 1543 1545 1547 1549 1551 1553 1554 1555 1556 1557 1559 1559 1560 1561 1562 1563 1564 1565 1565 1565 1566 1566 1566 1566 1566 1566 1565 1565 1565 1565 1564 1564 1564 1564 1564 1563 1563 1562
1529 1532 1534 1536 1538 1540 1542 1544 1546 1548 1550 1551 1552 1553 1554 1555 1556 1557 1558 1558 1559 1560 1561 1561 1562 1562 1562 1563 1563 1563 1562 1562 1561 1561 1561 1560 1560 1560 1560 1559 1559 1558 1558
1527 1529 1531 1534 1536 1538 1539 1541 1543 1545 1547 1548 1549 1550 1551 1552 1553 1553 1554 1555 1555 1556 1557 1558 1558 1558 1559 1559 1559 1559 1559 1558 1558 1558 1557 1556 1556 1556 1555 1555 1554 1554 1553
1525 1528 1529 1531 1533 1535 1537 1538 1540 1542 1543 1545 1546 1547 1548 1549 1550 1550 1551 1551 1552 1552 1553 1554 1554 1554 1555 1555 1555 1555 1555 1555 1554 1554 1553 1553 1552 1551 1551 1550 1549 1549 1548
1524 1526 1527 1529 1531 1533 1534 1536 1538 1539 1540 1542 1543 1544 1545 1546 1546 1547 1548 1548 1549 1549 1550 1550 1550 1551 1551 1551 1552 1552 1551 1551 1550 1551 1549 1549 1549 1548 1547 1546 1545 1544 1543
1522 1523 1525 1527 1528 1530 1532 1533 1535 1537 1538 1539 1540 1541 1542 1543 1543 1544 1545 1545 1546 1546 1547 1547 1547 1548 1549 1549 1548 1548 1548 1548 1547 1547 1546 1545 1545 1544 1543 1542 1541 1540 1539
1520 1521 1523 1524 1526 1528 1529 1531 1533 1534 1535 1536 1537 1538 1539 1540 1540 1542 1542 1542 1543 1543 1543 1544 1545 1545 1546 1546 1546 1546 1545 1545 1545 1544 1543 1542 1542 1541 1539 1538 1537 1536 1535
1518 1520 1521 1523 1524 1526 1527 1529 1530 1531 1532 1533 1534 1535 1536 1537 1538 1539 1539 1540 1540 1541 1541 1542 1543 1543 1544 1544 1543 1543 1542 1542 1541 1541 1540 1540 1538 1537 1536 1535 1534 1533 1532
1517 1518 1520 1521 1523 1524 1525 1526 1528 1529 1530 1531 1532 1533 1534 1535 1536 1536 1537 1537 1538 1539 1540 1540 1541 1541 1541 1541 1541 1541 1541 1540 1539 1539 1538 1537 1536 1534 1533 1532 1532 1530 1529